Tracking 19800 objects as of 23-Jul-2019
HD Live streaming from Space Station
objects crossing your sky now

CLUSTER II-FM7

Track CLUSTER II-FM7 now!
CLUSTER II-FM7 is classified as:


NORAD ID: 26411
Int'l Code: 2000-041B
Perigee: 28,446.9 km
Apogee: 104,307.6 km
Inclination: 130.8 °
Period: 3,254.6 minutes
Semi major axis: 72748 km
RCS: 1.5887 m2 (large)
Launch date: July 16, 2000
Source: European Space Agency (ESA)
Launch site: TYURATAM MISSILE AND SPACE COMPLEX (TTMTR)
aabbcc
Your satellite tracking list
Your tracking list is empty




NASA's NSSDC Master Catalog

Two Line Element Set (TLE):
1 26411U 00041B   19204.07373893 +.00000000 +00000-0 +00000-0 0  9995
2 26411 130.8286 340.2841 5213920 181.1595 359.2400 00.44245503009175
Source of the keplerian elements: AFSPC